| time (UTC) | temp C | wind direction | speed KPH | gust KPH | rain 1hr cm | rain 24hr cm | rain mn cm | humidity % | barometer mb |
| 20260505051605 | 18 | 205 | 4.8 | 14.5 | 0.00 | 0.00 | 0.00 | 48 | 1016.0 |
| 20260505041546 | 18 | 202 | 6.4 | 14.5 | 0.00 | 0.00 | 0.00 | 45 | 1016.0 |
| 20260505040046 | 18 | 272 | 6.4 | 16.1 | 0.00 | 0.00 | 0.00 | 46 | 1016.1 |
| 20260505034541 | 18 | 232 | 11.3 | 20.9 | 0.00 | 0.00 | 0.00 | 45 | 1016.1 |
| 20260505033042 | 18 | 227 | 8.0 | 14.5 | 0.00 | 0.00 | 0.00 | 46 | 1016.2 |
| 20260505031541 | 18 | 226 | 3.2 | 8.0 | 0.00 | 0.00 | 0.00 | 46 | 1016.2 |
| 20260505030041 | 18 | 258 | 3.2 | 9.7 | 0.00 | 0.00 | 0.00 | 46 | 1016.4 |
| 20260505024551 | 19 | 212 | 3.2 | 9.7 | 0.00 | 0.00 | 0.00 | 46 | 1016.4 |
| 20260505023044 | 19 | 227 | 8.0 | 14.5 | 0.00 | 0.00 | 0.00 | 45 | 1016.4 |
| 20260505021544 | 20 | 212 | 4.8 | 9.7 | 0.00 | 0.00 | 0.00 | 44 | 1016.1 |
| 20260505020041 | 20 | 219 | 1.6 | 11.3 | 0.00 | 0.00 | 0.00 | 42 | 1016.2 |
| 20260505014618 | 20 | 165 | 6.4 | 14.5 | 0.00 | 0.00 | 0.00 | 41 | 1015.9 |
| 20260505013046 | 20 | 163 | 4.8 | 12.9 | 0.00 | 0.00 | 0.00 | 41 | 1016.0 |
| 20260505011544 | 20 | 182 | 6.4 | 16.1 | 0.00 | 0.00 | 0.00 | 40 | 1015.9 |
| 20260505010053 | 20 | 207 | 3.2 | 12.9 | 0.00 | 0.00 | 0.00 | 39 | 1015.7 |
| 20260505004541 | 21 | 203 | 4.8 | 12.9 | 0.00 | 0.00 | 0.00 | 38 | 1015.5 |
| 20260505003041 | 21 | 130 | 3.2 | 9.7 | 0.00 | 0.00 | 0.00 | 38 | 1015.3 |
| 20260505001544 | 21 | 156 | 3.2 | 9.7 | 0.00 | 0.00 | 0.00 | 37 | 1015.2 |
| 20260505000046 | 21 | 190 | 3.2 | 12.9 | 0.00 | 0.00 | 0.00 | 36 | 1015.3 |
| 20260504234545 | 22 | 186 | 3.2 | 11.3 | 0.00 | 0.00 | 0.00 | 37 | 1015.1 |
| 20260504233100 | 22 | 196 | 6.4 | 19.3 | 0.00 | 0.00 | 0.00 | 36 | 1015.1 |
| 20260504231546 | 22 | 188 | 9.7 | 22.5 | 0.00 | 0.00 | 0.00 | 35 | 1014.9 |
| 20260504230052 | 23 | 169 | 9.7 | 19.3 | 0.00 | 0.00 | 0.00 | 36 | 1014.9 |
| 20260504224541 | 23 | 182 | 4.8 | 14.5 | 0.00 | 0.00 | 0.00 | 37 | 1014.9 |
| 20260504223040 | 23 | 159 | 8.0 | 24.1 | 0.00 | 0.00 | 0.00 | 37 | 1014.9 |
| 20260504221544 | 23 | 179 | 11.3 | 22.5 | 0.00 | 0.00 | 0.00 | 37 | 1014.9 |
| 20260504220044 | 23 | 190 | 9.7 | 19.3 | 0.00 | 0.00 | 0.00 | 36 | 1014.8 |
| 20260504214554 | 23 | 165 | 9.7 | 20.9 | 0.00 | 0.00 | 0.00 | 36 | 1014.8 |
| 20260504213041 | 23 | 152 | 11.3 | 22.5 | 0.00 | 0.00 | 0.00 | 35 | 1014.8 |
| 20260504211541 | 23 | 182 | 8.0 | 20.9 | 0.00 | 0.00 | 0.00 | 36 | 1014.9 |
| 20260504210104 | 24 | 100 | 8.0 | 20.9 | 0.00 | 0.00 | 0.00 | 34 | 1014.7 |
| 20260504204548 | 24 | 175 | 4.8 | 16.1 | 0.00 | 0.00 | 0.00 | 36 | 1015.0 |
| 20260504203100 | 24 | 175 | 8.0 | 25.7 | 0.00 | 0.00 | 0.00 | 35 | 1015.0 |
| 20260504201542 | 24 | 232 | 6.4 | 17.7 | 0.00 | 0.00 | 0.00 | 35 | 1015.4 |
| 20260504200042 | 24 | 142 | 12.9 | 20.9 | 0.00 | 0.00 | 0.00 | 34 | 1015.4 |
| 20260504194541 | 25 | 76 | 1.6 | 16.1 | 0.00 | 0.00 | 0.00 | 34 | 1015.6 |
| 20260504193041 | 25 | 159 | 4.8 | 12.9 | 0.00 | 0.00 | 0.00 | 35 | 1015.6 |
| 20260504191545 | 25 | 131 | 9.7 | 19.3 | 0.00 | 0.00 | 0.00 | 35 | 1015.9 |
| 20260504190106 | 25 | 212 | 4.8 | 16.1 | 0.00 | 0.00 | 0.00 | 35 | 1016.0 |
| 20260504184543 | 24 | 213 | 6.4 | 14.5 | 0.00 | 0.00 | 0.00 | 35 | 1016.3 |
| 20260504183041 | 23 | 277 | 9.7 | 17.7 | 0.00 | 0.00 | 0.00 | 36 | 1016.5 |
| 20260504181543 | 23 | 241 | 8.0 | 14.5 | 0.00 | 0.00 | 0.00 | 35 | 1016.8 |
| 20260504180041 | 23 | 134 | 6.4 | 16.1 | 0.00 | 0.00 | 0.00 | 35 | 1017.0 |
| 20260504174545 | 23 | 235 | 4.8 | 16.1 | 0.00 | 0.00 | 0.00 | 35 | 1017.1 |
| 20260504173043 | 22 | 252 | 6.4 | 16.1 | 0.00 | 0.00 | 0.00 | 37 | 1017.0 |
| 20260504171546 | 23 | 267 | 9.7 | 19.3 | 0.00 | 0.00 | 0.00 | 36 | 1017.2 |
| 20260504081548 | 6 | 243 | 3.2 | 4.8 | 0.00 | 0.00 | 0.00 | 83 | 1018.0 |